Tracking 29495 objects as of 7-Sep-2024
HD Live streaming from Space Station
objects crossing your sky now

ITALSAT 1

Track ITALSAT 1 now!
ITALSAT 1 is classified as:


NORAD ID: 21055
Int'l Code: 1991-003A
Perigee: 35,835.2 km
Apogee: 35,925.2 km
Inclination: 14.7 °
Period: 1,440.5 minutes
Semi major axis: 42251 km
RCS: 3.4358 m2 (large)
Launch date: January 15, 1991
Source: Italy (IT)
Launch site: FRENCH GUIANA (FRGUI)
Your satellite tracking list
Your tracking list is empty




NASA's NSSDC Master Catalog

Two Line Element Set (TLE):
1 21055U 91003A   24250.50456778  .00000103  00000-0  00000-0 0  9995
2 21055  14.7044 356.4213 0010654  57.8973 327.2906  0.99964151110605
Source of the keplerian elements: AFSPC